Regional Weather Roundup
Issued by NWS Northern Indiana

Home | Current Version | Previous Version | Graphics & Text | Print | Product List | Glossary On
Versions: 1 2 3 4 5 6 7 8 9 10 11 12 13 14 15 16 17 18 19 20 21 22 23 24 25 26 27 28 29 30 31 32 33 34 35 36 37 38 39 40 41 42 43 44 45 46 47 48 49 50
000
ASUS43 KIWX 261000
RWRIWX

KIWX WEATHER ROUNDUP
NATIONAL WEATHER SERVICE NORTHERN INDIANA
600 AM EDT THU MAY 26 2016

NOTE: "FAIR" INDICATES FEW OR NO CLOUDS BELOW 12,000 FEET WITH NO
SIGNIFICANT WEATHER AND/OR OBSTRUCTIONS TO VISIBILITY.

* THESE STATIONS ARE NOT UNDER NWS QUALITY CONTROL. THEY ALSO MAY NOT
  REPORT WEATHER SUCH AS PRECIPITATION OR FOG.

INZ001>027-261100-
NORTHERN INDIANA

CITY           SKY/WX    TMP DP  RH WIND       PRES   REMARKS
GARY*          MOCLDY    70  70 100 SE8       29.91F
SOUTH BEND     PTCLDY    67  63  87 S8        29.96F
GOSHEN         CLOUDY    70  62  76 S10       29.97S
ANGOLA*        MOCLDY    64  64 100 CALM      29.99S
FORT WAYNE     CLOUDY    67  62  84 SW7       30.00S
PERU/GRISSOM   MOCLDY    69  65  89 SW8       29.98S

$$
INZ028>050-261100-
CENTRAL INDIANA

CITY           SKY/WX    TMP DP  RH WIND       PRES   REMARKS
LAFAYETTE      PTCLDY    68  64  87 S7        29.97S
KOKOMO*        CLOUDY    70  61  73 S12       30.00S
MUNCIE*        PTCLDY    69  61  75 S6        30.01F
INDIANAPOLIS   MOCLDY    67  63  87 S9        30.01F

$$
MIZ043>046-050>051-056>058-064>065-071>073-077>080-261100-
SOUTHWEST LOWER MICHIGAN

CITY           SKY/WX    TMP DP  RH WIND       PRES   REMARKS
BATTLE CREEK   PTCLDY    62  61  96 S8        29.97S
BENTON HARBOR  PTCLDY    65  62  90 SE6       29.92F
COLDWATER*     PTCLDY    62  61  97 CALM      29.98S
HILLSDALE*     PTCLDY    64  61  91 S3        29.99R
HOLLAND        CLEAR     65  62  90 S8        29.91F
GRAND RAPIDS   MOCLDY    64  61  90 SE5       29.93S
KALAMAZOO      MOCLDY    65  62  90 S8        29.96S
STURGIS*       CLOUDY    66  63  89 S6        29.97S
THREE RIVERS*  MOCLDY    66  64  92 S5        29.96F

$$
OHZ001>008-015>018-024>025-261100-
NORTHWEST OHIO

CITY           SKY/WX    TMP DP  RH WIND       PRES   REMARKS
DEFIANCE       CLOUDY    69  62  78 S6        29.99S
FINDLAY        CLOUDY    67  59  75 SW8       30.01S
TOLEDO EXPRESS CLOUDY    67  62  84 S3        29.98F
TOLEDO METCALF MOCLDY    67  61  81 S6        29.99F
LIMA           MOCLDY    67  61  81 S7        30.03S

$$
AND FOR LAKE MICHIGAN COASTAL AND OPEN LAKE BUOY OBSERVATIONS

STATION/POSITION TEMP    WIND        PRES    VSBY  WAVE
                 AIR SEA DIR/SP/G                  HT/PER
                 (F)     (DEG/KT/KT) (MB)    (MI)  (FT/S)
CALUMET HARBOR    68     170/  5/  9 1012.4F
MICHIGAN CITY     68     150/ 11/ 16   N/A
BURNS HARBOR      68     190/  9/ 14 1013.9F
SAINT JOSEPH      65     120/  2/  7 1013.9F
4 MI NW BRIDGMAN  64 61  150/ 10/ 12   N/A           1
MICHIGAN CITY     63 58  180/  6/  8   N/A           1

$$
&&




USA.gov is the U.S. government's official web portal to all federal, state and local government web resources and services.